| time (UTC) | temp F | wind direction | speed MPH | gust MPH | rain 1hr in | rain 24hr in | rain mn in | humidity % | barometer mb |
| 20260904195356 | 78 | 315 | 4.0 | 8.0 | 0.00 | 0.32 | 0.05 | 67 | 1014.1 |
| 20260904194315 | 77 | 0.0 | 2.0 | 0.00 | 0.32 | 0.05 | 68 | 1014.0 | |
| 20260904193315 | 77 | 292 | 3.0 | 6.0 | 0.00 | 0.32 | 0.05 | 71 | 1014.2 |
| 20260904192315 | 77 | 45 | 3.0 | 6.0 | 0.00 | 0.32 | 0.05 | 66 | 1014.2 |
| 20260904191336 | 78 | 337 | 2.0 | 3.0 | 0.00 | 0.32 | 0.05 | 69 | 1014.4 |
| 20260904190315 | 78 | 45 | 4.0 | 7.0 | 0.00 | 0.32 | 0.05 | 68 | 1014.3 |
| 20260904185316 | 76 | 22 | 3.0 | 5.0 | 0.00 | 0.32 | 0.05 | 67 | 1014.4 |
| 20260904184335 | 75 | 247 | 3.0 | 5.0 | 0.00 | 0.32 | 0.05 | 69 | 1014.5 |
| 20260904183316 | 77 | 45 | 2.0 | 5.0 | 0.00 | 0.32 | 0.05 | 67 | 1014.6 |
| 20260904182315 | 78 | 292 | 1.0 | 2.0 | 0.00 | 0.32 | 0.05 | 67 | 1014.6 |
| 20260904181315 | 78 | 315 | 3.0 | 4.0 | 0.00 | 0.32 | 0.05 | 69 | 1014.8 |
| 20260904180335 | 77 | 247 | 4.0 | 7.0 | 0.00 | 0.32 | 0.05 | 67 | 1014.8 |
| 20260904174315 | 77 | 292 | 3.0 | 4.0 | 0.00 | 0.32 | 0.05 | 67 | 1015.1 |
| 20260904173335 | 77 | 0 | 1.0 | 2.0 | 0.00 | 0.32 | 0.05 | 67 | 1015.1 |
| 20260904172316 | 75 | 292 | 3.0 | 5.0 | 0.00 | 0.32 | 0.05 | 69 | 1015.2 |
| 20260904171455 | 76 | 315 | 2.0 | 4.0 | 0.00 | 0.32 | 0.05 | 68 | 1015.1 |
| 20260904170355 | 76 | 0 | 2.0 | 5.0 | 0.00 | 0.32 | 0.05 | 68 | 1015.3 |
| 20260904165416 | 77 | 292 | 2.0 | 3.0 | 0.00 | 0.32 | 0.05 | 70 | 1015.4 |
| 20260904164315 | 77 | 337 | 2.0 | 4.0 | 0.00 | 0.32 | 0.05 | 70 | 1015.3 |
| 20260904163315 | 76 | 270 | 3.0 | 4.0 | 0.00 | 0.32 | 0.05 | 68 | 1015.1 |
| 20260904162315 | 75 | 45 | 2.0 | 3.0 | 0.00 | 0.32 | 0.05 | 72 | 1015.3 |
| 20260904161316 | 76 | 292 | 2.0 | 4.0 | 0.00 | 0.32 | 0.05 | 71 | 1015.5 |
| 20260904160315 | 75 | 292 | 3.0 | 6.0 | 0.00 | 0.32 | 0.05 | 73 | 1015.3 |
| 20260904155456 | 75 | 45 | 3.0 | 7.0 | 0.00 | 0.32 | 0.05 | 72 | 1015.3 |
| 20260904154315 | 75 | 67 | 5.0 | 9.0 | 0.00 | 0.32 | 0.05 | 73 | 1015.3 |
| 20260904153317 | 75 | 45 | 1.0 | 4.0 | 0.00 | 0.32 | 0.05 | 72 | 1015.2 |
| 20260904152315 | 75 | 0.0 | 1.0 | 0.00 | 0.32 | 0.05 | 72 | 1015.3 | |
| 20260904151315 | 75 | 157 | 1.0 | 3.0 | 0.00 | 0.32 | 0.05 | 75 | 1015.4 |
| 20260904150316 | 74 | 45 | 4.0 | 9.0 | 0.00 | 0.32 | 0.05 | 75 | 1015.4 |
| 20260904145315 | 73 | 45 | 4.0 | 10.0 | 0.00 | 0.32 | 0.05 | 75 | 1015.4 |
| 20260904144315 | 73 | 67 | 1.0 | 3.0 | 0.00 | 0.32 | 0.05 | 77 | 1015.4 |
| 20260904143355 | 73 | 0.0 | 1.0 | 0.00 | 0.32 | 0.05 | 78 | 1015.4 | |
| 20260904142416 | 73 | 0.0 | 0.0 | 0.00 | 0.32 | 0.05 | 78 | 1015.3 | |
| 20260904141315 | 72 | 0.0 | 1.0 | 0.00 | 0.32 | 0.05 | 79 | 1015.4 | |
| 20260904140315 | 72 | 292 | 1.0 | 2.0 | 0.01 | 0.32 | 0.05 | 81 | 1015.4 |
| 20260904135335 | 71 | 67 | 1.0 | 3.0 | 0.01 | 0.32 | 0.05 | 81 | 1015.5 |
| 20260904134316 | 70 | 0.0 | 0.0 | 0.01 | 0.32 | 0.05 | 82 | 1015.3 | |
| 20260904133315 | 69 | 0.0 | 1.0 | 0.01 | 0.32 | 0.05 | 84 | 1015.2 | |
| 20260904132335 | 68 | 22 | 2.0 | 3.0 | 0.01 | 0.32 | 0.05 | 89 | 1015.1 |
| 20260904131315 | 67 | 0.0 | 3.0 | 0.01 | 0.32 | 0.05 | 92 | 1015.1 | |
| 20260904130356 | 66 | 0.0 | 0.0 | 0.00 | 0.31 | 0.04 | 93 | 1015.0 | |
| 20260904125415 | 66 | 0.0 | 0.0 | 0.00 | 0.31 | 0.04 | 93 | 1015.1 | |
| 20260904124335 | 66 | 0.0 | 0.0 | 0.00 | 0.31 | 0.04 | 93 | 1015.1 | |
| 20260904123316 | 65 | 0.0 | 0.0 | 0.00 | 0.31 | 0.04 | 93 | 1015.2 | |
| 20260904122355 | 66 | 0.0 | 0.0 | 0.00 | 0.31 | 0.04 | 93 | 1015.2 | |
| 20260904121315 | 66 | 0.0 | 0.0 | 0.00 | 0.31 | 0.04 | 93 | 1015.0 | |
| 20260904120416 | 66 | 0.0 | 0.0 | 0.00 | 0.31 | 0.04 | 93 | 1015.1 | |
| 20260904115315 | 65 | 0.0 | 0.0 | 0.00 | 0.31 | 0.04 | 93 | 1015.0 | |
| 20260904114315 | 65 | 0.0 | 0.0 | 0.00 | 0.31 | 0.04 | 93 | 1015.0 | |
| 20260904113436 | 65 | 0.0 | 0.0 | 0.00 | 0.31 | 0.04 | 93 | 1014.9 | |
| 20260904112356 | 65 | 0.0 | 0.0 | 0.00 | 0.31 | 0.04 | 93 | 1014.9 | |
| 20260904111315 | 65 | 0.0 | 0.0 | 0.00 | 0.31 | 0.04 | 93 | 1014.9 | |
| 20260904110315 | 65 | 0.0 | 0.0 | 0.00 | 0.31 | 0.04 | 93 | 1014.8 | |
| 20260904105315 | 65 | 0.0 | 0.0 | 0.00 | 0.31 | 0.04 | 93 | 1014.7 | |
| 20260904104355 | 66 | 0.0 | 0.0 | 0.00 | 0.31 | 0.04 | 93 | 1014.8 | |
| 20260904103315 | 68 | 0.0 | 0.0 | 0.00 | 0.31 | 0.04 | 93 | 1014.8 | |
| 20260904102315 | 68 | 0.0 | 0.0 | 0.00 | 0.31 | 0.04 | 93 | 1014.7 | |
| 20260904101317 | 68 | 0.0 | 0.0 | 0.00 | 0.31 | 0.04 | 93 | 1014.5 | |
| 20260904100437 | 68 | 0.0 | 0.0 | 0.00 | 0.31 | 0.04 | 93 | 1014.5 | |
| 20260904095317 | 68 | 0.0 | 0.0 | 0.00 | 0.31 | 0.04 | 93 | 1014.6 | |
| 20260904094317 | 68 | 0.0 | 0.0 | 0.00 | 0.31 | 0.04 | 93 | 1014.7 | |
| 20260904093417 | 68 | 0.0 | 0.0 | 0.00 | 0.31 | 0.04 | 93 | 1014.6 | |
| 20260904092357 | 68 | 0.0 | 0.0 | 0.00 | 0.32 | 0.04 | 93 | 1014.5 | |
| 20260904091357 | 68 | 0.0 | 0.0 | 0.00 | 0.32 | 0.04 | 93 | 1014.5 | |
| 20260904090336 | 68 | 0.0 | 0.0 | 0.00 | 0.32 | 0.04 | 93 | 1014.3 | |
| 20260904085337 | 68 | 0.0 | 0.0 | 0.00 | 0.32 | 0.04 | 93 | 1014.4 | |
| 20260904084337 | 68 | 0.0 | 0.0 | 0.00 | 0.32 | 0.04 | 93 | 1014.4 | |
| 20260904083316 | 69 | 0.0 | 0.0 | 0.00 | 0.32 | 0.04 | 93 | 1014.3 | |
| 20260904082337 | 69 | 0.0 | 0.0 | 0.00 | 0.32 | 0.04 | 93 | 1014.2 | |
| 20260904081438 | 69 | 0.0 | 0.0 | 0.00 | 0.32 | 0.04 | 93 | 1014.0 | |
| 20260904080316 | 69 | 0.0 | 0.0 | 0.00 | 0.32 | 0.04 | 93 | 1013.7 | |
| 20260904075356 | 69 | 0.0 | 0.0 | 0.00 | 0.32 | 0.04 | 93 | 1013.5 | |
| 20260904074417 | 69 | 0.0 | 0.0 | 0.00 | 0.32 | 0.04 | 93 | 1013.5 | |
| 20260904073316 | 69 | 0.0 | 0.0 | 0.00 | 0.32 | 0.04 | 93 | 1013.3 | |
| 20260904072418 | 70 | 0.0 | 0.0 | 0.00 | 0.32 | 0.04 | 93 | 1013.3 | |
| 20260904071337 | 70 | 0.0 | 0.0 | 0.00 | 0.32 | 0.04 | 93 | 1013.3 | |
| 20260904070316 | 70 | 0.0 | 0.0 | 0.00 | 0.32 | 0.04 | 93 | 1013.5 | |
| 20260904065316 | 70 | 0.0 | 0.0 | 0.00 | 0.32 | 0.04 | 93 | 1013.4 | |
| 20260904064316 | 70 | 0.0 | 0.0 | 0.00 | 0.32 | 0.04 | 93 | 1013.4 | |
| 20260904063357 | 70 | 0.0 | 0.0 | 0.00 | 0.32 | 0.04 | 93 | 1013.5 | |
| 20260904062356 | 70 | 0.0 | 0.0 | 0.00 | 0.32 | 0.04 | 93 | 1013.6 | |
| 20260904061316 | 70 | 0.0 | 0.0 | 0.00 | 0.32 | 0.04 | 93 | 1013.6 | |
| 20260904060337 | 70 | 0.0 | 0.0 | 0.00 | 0.32 | 0.04 | 93 | 1013.6 | |
| 20260904055316 | 71 | 0.0 | 0.0 | 0.00 | 0.32 | 0.04 | 93 | 1013.7 | |
| 20260904054316 | 71 | 0.0 | 0.0 | 0.00 | 0.32 | 0.04 | 93 | 1013.8 | |
| 20260904053316 | 71 | 0.0 | 0.0 | 0.00 | 0.32 | 0.04 | 93 | 1013.8 | |
| 20260904052337 | 71 | 0.0 | 0.0 | 0.00 | 0.32 | 0.04 | 93 | 1013.8 | |
| 20260904051436 | 71 | 0.0 | 0.0 | 0.00 | 0.32 | 0.04 | 93 | 1013.9 | |
| 20260904050356 | 71 | 0.0 | 0.0 | 0.04 | 0.32 | 0.04 | 93 | 1013.9 | |
| 20260904045317 | 71 | 0.0 | 0.0 | 0.10 | 0.32 | 0.04 | 93 | 1014.0 | |
| 20260904044336 | 72 | 0.0 | 0.0 | 0.13 | 0.33 | 0.04 | 93 | 1014.1 | |
| 20260904043337 | 72 | 0.0 | 0.0 | 0.18 | 0.33 | 0.04 | 93 | 1014.1 | |
| 20260904042316 | 72 | 0.0 | 0.0 | 0.22 | 0.35 | 0.04 | 93 | 1014.1 | |
| 20260904041336 | 72 | 0.0 | 0.0 | 0.24 | 0.38 | 0.04 | 93 | 1014.0 | |
| 20260904040336 | 72 | 0.0 | 0.0 | 0.23 | 0.37 | 0.00 | 93 | 1014.0 | |
| 20260904035316 | 72 | 0.0 | 0.0 | 0.17 | 0.33 | 0.31 | 93 | 1014.0 | |
| 20260904034357 | 72 | 0.0 | 0.0 | 0.16 | 0.35 | 0.28 | 93 | 1014.1 | |
| 20260904033316 | 72 | 0.0 | 0.0 | 0.12 | 0.38 | 0.24 | 93 | 1014.0 | |
| 20260904032316 | 72 | 0.0 | 0.0 | 0.09 | 0.36 | 0.20 | 93 | 1013.9 | |
| 20260904031337 | 72 | 0.0 | 0.0 | 0.07 | 0.36 | 0.18 | 93 | 1013.7 | |
| 20260904030316 | 72 | 0.0 | 0.0 | 0.04 | 0.34 | 0.15 | 93 | 1013.7 | |
| 20260904025336 | 71 | 0.0 | 0.0 | 0.03 | 0.35 | 0.14 | 92 | 1013.6 | |
| 20260904024316 | 71 | 0.0 | 0.0 | 0.01 | 0.36 | 0.12 | 92 | 1013.7 | |
| 20260904023337 | 71 | 0.0 | 0.0 | 0.00 | 0.37 | 0.11 | 92 | 1013.6 | |
| 20260904022436 | 71 | 0.0 | 0.0 | 0.00 | 0.38 | 0.11 | 92 | 1013.4 | |
| 20260904021316 | 71 | 0.0 | 0.0 | 0.00 | 0.40 | 0.11 | 92 | 1013.8 | |
| 20260904020317 | 71 | 0.0 | 0.0 | 0.00 | 0.42 | 0.11 | 92 | 1014.0 | |
| 20260904015316 | 71 | 0.0 | 0.0 | 0.00 | 0.46 | 0.11 | 92 | 1014.0 | |
| 20260904014336 | 71 | 0.0 | 0.0 | 0.00 | 0.64 | 0.11 | 92 | 1013.9 | |
| 20260904013337 | 71 | 0.0 | 0.0 | 0.00 | 0.64 | 0.11 | 92 | 1013.9 | |
| 20260904012336 | 72 | 0.0 | 0.0 | 0.00 | 0.64 | 0.11 | 92 | 1013.9 | |
| 20260904011336 | 72 | 0.0 | 0.0 | 0.00 | 0.65 | 0.11 | 92 | 1013.8 | |
| 20260904010316 | 72 | 0.0 | 0.0 | 0.00 | 0.65 | 0.11 | 92 | 1014.0 | |
| 20260904005417 | 72 | 0.0 | 0.0 | 0.00 | 0.65 | 0.11 | 92 | 1014.1 | |
| 20260904004316 | 72 | 0.0 | 0.0 | 0.00 | 0.66 | 0.11 | 91 | 1013.9 | |
| 20260904003336 | 72 | 0.0 | 0.0 | 0.00 | 0.66 | 0.11 | 91 | 1013.8 | |
| 20260904002357 | 72 | 0.0 | 0.0 | 0.00 | 0.66 | 0.11 | 91 | 1013.6 | |
| 20260904001316 | 73 | 0.0 | 0.0 | 0.00 | 0.66 | 0.11 | 91 | 1013.6 | |
| 20260904000318 | 73 | 0.0 | 0.0 | 0.00 | 0.66 | 0.11 | 91 | 1013.6 | |
| 20260903235336 | 73 | 0.0 | 0.0 | 0.00 | 0.66 | 0.11 | 90 | 1013.5 | |
| 20260903234337 | 74 | 0.0 | 0.0 | 0.00 | 0.66 | 0.11 | 90 | 1013.3 | |
| 20260903233316 | 74 | 0.0 | 0.0 | 0.00 | 0.66 | 0.11 | 90 | 1013.6 | |
| 20260903232356 | 74 | 0.0 | 0.0 | 0.00 | 0.66 | 0.11 | 90 | 1013.8 | |
| 20260903231357 | 75 | 0.0 | 0.0 | 0.00 | 0.66 | 0.11 | 89 | 1013.8 | |
| 20260903230316 | 75 | 0.0 | 0.0 | 0.00 | 0.66 | 0.11 | 89 | 1013.6 | |
| 20260903225337 | 76 | 0.0 | 0.0 | 0.00 | 0.66 | 0.11 | 89 | 1013.6 | |
| 20260903224316 | 76 | 0.0 | 0.0 | 0.00 | 0.66 | 0.11 | 88 | 1013.4 | |
| 20260903223316 | 76 | 0.0 | 0.0 | 0.00 | 0.66 | 0.11 | 88 | 1013.1 | |
| 20260903222316 | 77 | 0.0 | 0.0 | 0.00 | 0.66 | 0.11 | 87 | 1013.3 | |
| 20260903221316 | 78 | 0.0 | 0.0 | 0.00 | 0.66 | 0.11 | 86 | 1013.2 | |
| 20260903220336 | 78 | 0.0 | 0.0 | 0.00 | 0.66 | 0.11 | 84 | 1013.0 | |
| 20260903215337 | 79 | 0.0 | 0.0 | 0.00 | 0.66 | 0.11 | 82 | 1013.0 | |
| 20260903214336 | 79 | 0.0 | 0.0 | 0.00 | 0.66 | 0.11 | 85 | 1013.0 | |
| 20260903213337 | 79 | 0.0 | 0.0 | 0.00 | 0.66 | 0.11 | 83 | 1013.1 | |
| 20260903212336 | 81 | 0.0 | 0.0 | 0.00 | 0.66 | 0.11 | 76 | 1013.3 | |
| 20260903211317 | 81 | 292 | 1.0 | 2.0 | 0.00 | 0.66 | 0.11 | 75 | 1013.3 |
| 20260903210316 | 83 | 292 | 3.0 | 4.0 | 0.00 | 0.66 | 0.11 | 74 | 1013.5 |
| 20260903205316 | 82 | 270 | 2.0 | 4.0 | 0.00 | 0.66 | 0.11 | 74 | 1013.5 |
| 20260903204316 | 83 | 315 | 3.0 | 4.0 | 0.00 | 0.66 | 0.11 | 74 | 1013.6 |
| 20260903203416 | 83 | 337 | 2.0 | 4.0 | 0.00 | 0.66 | 0.11 | 73 | 1013.6 |
| 20260903202357 | 82 | 247 | 6.0 | 7.0 | 0.00 | 0.66 | 0.11 | 72 | 1013.8 |
| 20260903201316 | 83 | 247 | 2.0 | 4.0 | 0.00 | 0.66 | 0.11 | 73 | 1013.9 |
| 20260903200316 | 82 | 270 | 2.0 | 4.0 | 0.00 | 0.66 | 0.11 | 75 | 1014.1 |